User: anonymous   Login
Location: Unspecified
(0.0000°N, 0.0000°E)
Time: 23:59:58
(UTC+01:00)
Language:

NOAA 12 - Orbit

View from above orbital plane
View from above orbital plane
View from above satellite
View from above satellite

Ground track
Ground track

The orbit data is extracted from the following two-line orbital elements,

1 21263U 91032A   15027.59312108  .00000058  00000-0  43084-4 0  5883
2 21263 098.6436 056.6031 0012676 306.0084 163.7386 14.25725969232535
Epoch (UTC): 27 January 2015 14:14:05
Eccentricity: 0.0012676
inclination: 98.6436°
perigee height: 797 km
apogee height: 815 km
right ascension of ascending node: 56.6031°
argument of perigee: 306.0084°
revolutions per day: 14.25725969
mean anomaly at epoch: 163.7386°
orbit number at epoch: 23253

The dashed part of the orbit path shows where the satellite is in the earth's shadow,  

DLR